View from above orbital plane
|
View from above satellite
|
Ground track
|
The orbit data is extracted from the following two-line orbital elements,
1 29048U 06011B 19346.14719343 .00000035 00000-0 30352-4 0 9991
2 29048 71.9676 45.4580 0044605 341.3399 18.6099 14.28668553716913
Epoch (UTC): | 12 December 2019 03:31:57 |
Eccentricity: | 0.0044605 |
inclination: | 71.9676° |
perigee height: | 764 km |
apogee height: | 828 km |
right ascension of ascending node: | 45.4580° |
argument of perigee: | 341.3399° |
revolutions per day: | 14.28668553 |
mean anomaly at epoch: | 18.6099° |
orbit number at epoch: | 71691 |
The dashed part of the orbit path shows where the satellite is in the earth's shadow,
|
|